Mullan Pass, ID

7:59 AM PDT on October 20, 2019 (GMT -0700)
Mullan Pass

Weather History for KMLP - August, 2019

Change the Weather History Date:

Friday, August 30, 2019

  Actual Average (WUND) Record (WUND)
Temperature  
Mean Temperature 58 °F -  
Max Temperature 64 °F - - (-1)
Min Temperature 53 °F - - (-1)
Degree Days  
Heating Degree Days 6    
Growing Degree Days 8 (Base 50)    
Moisture  
Dew Point 51 °F    
Average Humidity 75    
Maximum Humidity 87    
Minimum Humidity 65    
Precipitation  
Precipitation 0.02 in - - ()
Sea Level Pressure  
Sea Level Pressure 30.04 in    
Wind  
Wind Speed 3 mph (West)    
Max Wind Speed 7 mph    
Max Gust Speed -    
Visibility 10 miles    
Events Rain    
Averages and records for this station are not official NWS values.
T = Trace of Precipitation, MM = Missing Value Source: NWS Daily Summary

Daily Weather History Graph

Daily Weather History Graph

Search for Another Location

Airport or City:

Astronomy

Aug. 30, 2019 Rise Set
Actual Time 5:58 AM PDT 7:27 PM PDT
Civil Twilight 5:26 AM PDT 7:59 PM PDT
Nautical Twilight 4:47 AM PDT 8:37 PM PDT
Astronomical Twilight 4:05 AM PDT 9:19 PM PDT
Moon 6:01 AM PDT (8/30) 8:06 PM PDT (8/30)
Length of Visible Light 14h 32m
Length of Day
13h 28m
New Moon, 0% of the Moon is Illuminated
Aug 30
New Moon
Sep 5
First Quarter
Sep 13
Full
Sep 21
Last Quarter
Sep 28
New

Hourly Weather History & Observations

Time (PDT) Temp. Dew Point Humidity Pressure Visibility Wind Dir Wind Speed Gust Speed Precip Events Conditions
12:53 AM 55.0 °F 46.9 °F 74% 29.90 in 10.0 mi SW 4.6 mph - 0.01 in   Overcast
1:53 AM 54.0 °F 46.9 °F 77% 29.91 in 10.0 mi SW 4.6 mph - 0.00 in Rain Light Rain
2:53 AM 53.1 °F 48.0 °F 83% 29.92 in 10.0 mi Variable 3.5 mph - 0.01 in   Overcast
3:53 AM 53.1 °F 48.0 °F 83% 29.92 in 10.0 mi NW 3.5 mph - N/A   Overcast
4:53 AM 54.0 °F 48.0 °F 80% 29.92 in 10.0 mi NNW 4.6 mph - N/A   Overcast
5:53 AM 54.0 °F 48.0 °F 80% 29.92 in 10.0 mi NW 3.5 mph - N/A   Overcast
6:53 AM 53.1 °F 48.0 °F 83% 29.94 in 10.0 mi WNW 3.5 mph - N/A   Scattered Clouds
7:53 AM 55.9 °F 48.0 °F 75% 29.95 in 10.0 mi Variable 3.5 mph - N/A   Clear
8:53 AM 59.0 °F 50.0 °F 72% 29.95 in 10.0 mi Variable 3.5 mph - N/A   Clear
9:30 AM 59.0 °F 50.0 °F 72% 30.20 in 10.0 mi Calm Calm - N/A   Mostly Cloudy
9:42 AM 57.9 °F 50.0 °F 75% 30.20 in 10.0 mi Calm Calm - N/A   Mostly Cloudy
9:53 AM 57.9 °F 50.0 °F 75% 29.96 in 10.0 mi SW 3.5 mph - N/A   Mostly Cloudy
10:44 AM 60.1 °F 51.1 °F 72% 30.21 in 10.0 mi Calm Calm - N/A   Scattered Clouds
10:53 AM 60.1 °F 50.0 °F 69% 29.96 in 10.0 mi Calm Calm - N/A   Partly Cloudy
11:28 AM 62.1 °F 51.1 °F 67% 30.21 in 10.0 mi Calm Calm - N/A   Mostly Cloudy
11:36 AM 62.1 °F 50.0 °F 65% 30.21 in 10.0 mi Variable 3.5 mph - N/A   Mostly Cloudy
11:53 AM 63.0 °F 51.1 °F 65% 29.96 in 10.0 mi Variable 3.5 mph - N/A   Mostly Cloudy
12:43 PM 61.0 °F 50.0 °F 67% 30.21 in 10.0 mi Variable 3.5 mph - N/A   Overcast
12:53 PM 61.0 °F 51.1 °F 70% 29.96 in 10.0 mi Calm Calm - 0.00 in Rain Light Rain
1:14 PM 62.1 °F 54.0 °F 75% 30.22 in 10.0 mi Variable 4.6 mph - 0.00 in Rain Light Rain
1:53 PM 57.9 °F 52.0 °F 81% 29.98 in 10.0 mi Variable 4.6 mph - 0.00 in Rain Light Rain
2:30 PM 57.0 °F 52.0 °F 83% 30.22 in 10.0 mi NNW 6.9 mph - 0.00 in   Mostly Cloudy
2:48 PM 59.0 °F 53.6 °F 82% 30.22 in 10.0 mi NNW 3.5 mph - 0.00 in   Overcast
2:53 PM 60.1 °F 54.0 °F 80% 29.97 in 10.0 mi Variable 4.6 mph - 0.00 in   Overcast
3:00 PM 61.0 °F 53.1 °F 75% 30.22 in 10.0 mi Variable 4.6 mph - N/A   Mostly Cloudy
3:18 PM 61.0 °F 52.0 °F 72% 30.22 in 10.0 mi Variable 4.6 mph - N/A   Mostly Cloudy
3:53 PM 62.1 °F 53.1 °F 72% 29.96 in 10.0 mi Variable 3.5 mph - N/A   Mostly Cloudy
4:44 PM 64.0 °F 54.0 °F 70% 30.21 in 10.0 mi NNW 4.6 mph - N/A   Scattered Clouds
4:53 PM 63.0 °F 53.1 °F 70% 29.95 in 10.0 mi NW 4.6 mph - N/A   Partly Cloudy
5:53 PM 63.0 °F 52.0 °F 67% 29.95 in 10.0 mi Calm Calm - N/A   Scattered Clouds
6:53 PM 60.1 °F 52.0 °F 75% 29.96 in 10.0 mi Calm Calm - N/A   Clear
7:53 PM 60.1 °F 51.1 °F 72% 29.96 in 10.0 mi Calm Calm - N/A   Clear
8:53 PM 57.9 °F 52.0 °F 81% 29.96 in 10.0 mi Calm Calm - N/A   Partly Cloudy
9:53 PM 57.9 °F 51.1 °F 78% 29.97 in 10.0 mi South 3.5 mph - N/A   Clear
10:53 PM 55.9 °F 52.0 °F 87% 29.97 in 10.0 mi South 3.5 mph - N/A   Clear
11:53 PM 57.0 °F 51.1 °F 81% 29.96 in 10.0 mi South 4.6 mph - N/A   Clear